[[{"header":{"parameterUnit":"m.s-1","parameterCategory":1,"la1":30.2991,"la2":30.254,"lo1":-89.0895,"lo2":-89.0444,"dy":0.0017,"dx":0.0017,"nx":28,"ny":28,"refTime":"2024-10-12T09:00:00:Z","depth":0,"parameterNumber":2,"parameterNumberName":"U-component_of_WINDS"},"data":[0,0,0,0,0,0,0,0,0,0,0,0,0,0,0,0,0,0,0,0,0,0,0,0,0,0,0,0,0,0,0,0,0,0,0,0,0,0,0,0,0,0,0,0,0,0,0,0,0,0,0,0,0,0,0,0,0,0,1.8574,1.8574,0,1.8564,1.8564,1.8564,1.8533,1.8533,1.8532,1.8531,1.8519,1.8519,1.8519,0,0,0,0,0,0,0,0,0,0,0,0,0,1.8562,1.8562,1.8574,1.8574,1.8574,1.8564,1.8564,1.8564,1.8534,1.8533,1.8532,1.8531,1.8519,1.8519,1.8519,0,0,0,0,0,0,0,0,0,0,0,0,0,1.8561,1.8562,1.8574,1.8558,1.8556,1.8564,1.8564,1.8564,1.8534,1.8533,1.8532,1.8531,1.8518,1.8519,1.8519,1.8542,0,0,1.8521,1.8521,0,0,0,0,0,0,0,0,1.8561,1.8561,1.856,1.8559,1.8557,1.8549,1.8555,1.8556,1.8534,1.8542,1.8531,1.853,1.8529,1.8529,1.8529,1.8541,1.8541,1.8521,1.8521,1.8521,1.8521,0,0,0,0,0,0,0,1.8561,1.8561,1.857,1.856,1.8558,1.8549,1.8548,1.8555,1.8541,1.8541,1.8539,1.8538,1.8528,1.8529,1.8529,1.854,1.8521,1.8521,1.8521,1.8521,1.8565,1.8566,0,0,0,0,0,0,1.8564,1.8562,1.857,1.857,1.8557,1.855,1.8549,1.8553,1.8541,1.8539,1.8539,1.8537,1.8529,1.8528,1.8528,1.855,1.8521,1.8521,1.8522,1.8564,1.8566,1.8567,0,0,0,0,0,0,1.8564,1.8565,1.8571,1.8565,1.8565,1.8551,1.8556,1.8553,1.8553,1.854,1.8537,1.8543,1.8528,1.8527,1.8538,1.855,1.8522,1.8522,1.8563,1.8565,1.8566,1.8598,0,0,0,0,0,0,1.8564,1.8565,1.8575,1.8566,1.8566,1.8582,1.8557,1.8553,1.8554,1.8551,1.8542,1.8539,1.8527,1.8537,1.8538,1.855,1.8522,1.8562,1.8564,1.8566,1.8595,1.86,1.8604,0,0,0,0,0,1.8563,1.8585,1.8576,1.8577,1.8578,1.8583,1.8583,1.8569,1.8556,1.8564,1.8555,1.854,1.8548,1.8539,1.8539,1.8551,1.8561,1.8563,1.8565,1.8594,1.8599,1.8604,0,0,0,0,0,0,1.8597,1.8584,1.8573,1.8593,1.8589,1.8578,1.8589,1.8576,1.8576,1.8573,1.8554,1.8552,1.8564,1.8559,1.8548,1.857,1.8552,1.8554,1.8573,1.8578,1.8582,1.8583,1.8523,0,0,0,0,0,1.8606,1.8613,1.8601,1.8619,1.8618,1.8604,1.8605,1.8594,1.859,1.8588,1.8579,1.8574,1.8575,1.8577,1.8577,1.8594,1.859,1.8603,1.8607,1.861,1.8612,1.8617,1.8621,1.8573,1.8573,1.8573,0,0,1.8626,1.862,1.8625,1.8625,1.8621,1.8626,1.8603,1.861,1.8613,1.8589,1.8597,1.8591,1.8583,1.8596,1.8601,1.8592,1.8624,1.8613,1.8616,1.8616,1.8619,1.8624,1.8628,1.8575,1.8574,1.8574,0,0,1.8664,1.8662,1.8675,1.8671,1.8665,1.8654,1.8657,1.8647,1.8642,1.865,1.8631,1.8633,1.8637,1.8631,1.8629,1.8661,1.8646,1.8662,1.8683,1.8688,1.8691,1.8695,1.8703,1.8707,1.8664,1.8664,1.8664,0,1.869,1.8698,1.8683,1.8691,1.869,1.8668,1.8679,1.8675,1.867,1.8668,1.8658,1.8659,1.8653,1.8662,1.867,1.867,1.867,1.8662,1.8692,1.8695,1.8698,1.8706,1.871,1.8665,1.8665,1.8665,1.8665,0,1.8728,1.8734,1.8745,1.8739,1.8739,1.8749,1.8733,1.8734,1.8722,1.8713,1.8719,1.871,1.8707,1.8709,1.8698,1.8715,1.8709,1.8696,1.8677,1.8705,1.8712,1.8715,1.8668,1.8667,1.8667,1.8666,0,0,1.8789,1.8772,1.8776,1.8771,1.8761,1.8765,1.8771,1.8768,1.8768,1.8764,1.8768,1.8769,1.8756,1.8753,1.8741,1.8745,1.8767,1.8731,1.873,1.8736,1.8782,1.8791,1.8795,1.8757,1.8758,1.8758,1.8781,0,1.8823,1.8835,1.8819,1.8834,1.8837,1.8814,1.8819,1.8812,1.8803,1.8802,1.8791,1.8791,1.8775,1.8772,1.8776,1.8764,1.8776,1.8762,1.8757,1.8758,1.8759,1.8799,1.8809,1.8832,1.8784,1.8785,1.8785,0,1.8865,1.8862,1.8876,1.8862,1.8862,1.8868,1.8861,1.8862,1.8852,1.8844,1.884,1.8825,1.8827,1.881,1.8812,1.8803,1.88,1.8793,1.8793,1.8791,1.8772,1.8796,1.8839,1.8842,1.879,1.879,1.8789,0,1.8904,1.8904,1.8911,1.8908,1.8892,1.8896,1.8889,1.8879,1.8876,1.887,1.8868,1.8863,1.8859,1.8854,1.8836,1.8826,1.8839,1.8821,1.8831,1.8831,1.8834,1.8834,1.8875,1.8835,1.8835,1.8835,1.8835,0,1.8943,1.8952,1.8928,1.8933,1.8941,1.8922,1.893,1.8921,1.8911,1.8911,1.8891,1.8892,1.887,1.8867,1.8853,1.8855,1.8854,1.8846,1.8842,1.8847,1.8848,1.8844,1.8841,1.8836,1.8835,1.8835,1.8835,0,1.8988,1.8973,1.8979,1.8963,1.8958,1.8965,1.895,1.8952,1.894,1.8941,1.8939,1.892,1.8916,1.8898,1.8889,1.8879,1.8885,1.8878,1.8888,1.8885,1.8895,1.8893,1.8934,1.8938,1.8897,1.8897,1.8898,0,1.9013,1.9019,1.9003,1.9002,1.8996,1.8995,1.8992,1.8972,1.897,1.8957,1.896,1.8954,1.8948,1.8941,1.8925,1.8917,1.8909,1.8924,1.8908,1.8911,1.8906,1.8906,1.8905,1.8927,1.8928,1.8928,1.8928,0,1.9058,1.9049,1.9047,1.904,1.9037,1.9031,1.9023,1.9023,1.9001,1.8999,1.8994,1.8989,1.8979,1.8972,1.8961,1.8952,1.8935,1.8933,1.8935,1.8939,1.8944,1.8939,1.8896,1.8933,1.8932,1.8932,1.8932,1.8931,1.9092,1.9095,1.9083,1.908,1.9072,1.9064,1.9065,1.9052,1.9048,1.9038,1.9026,1.9022,1.9008,1.8992,1.8984,1.8978,1.897,1.8973,1.8973,1.8973,1.8975,1.8946,1.8977,1.8976,1.8976,1.8976,1.8976,0,1.9134,1.9125,1.9122,1.9111,1.9107,1.9093,1.9083,1.908,1.9076,1.9066,1.9059,1.9052,1.9044,1.9027,1.9017,1.9015,1.9007,1.9013,1.9012,1.901,1.8984,1.8983,1.902,1.902,1.902,1.902,1.902,1.902,1.9155,1.9159,1.9148,1.9146,1.9136,1.9132,1.9127,1.9119,1.9109,1.9102,1.9095,1.9084,1.9069,1.9058,1.9049,1.9044,1.904,1.9048,1.904,1.9016,1.9012,1.9008,1.9007,1.9048,1.9048,1.9066,1.9066,1.9066]},{"header":{"parameterUnit":"m.s-1","parameterCategory":1,"la1":30.2991,"la2":30.254,"lo1":-89.0895,"lo2":-89.0444,"dy":0.0017,"dx":0.0017,"nx":28,"ny":28,"refTime":"2024-10-12T09:00:00:Z","depth":0,"parameterNumber":3,"parameterNumberName":"V-component_of_WINDS"},"data":[0,0,0,0,0,0,0,0,0,0,0,0,0,0,0,0,0,0,0,0,0,0,0,0,0,0,0,0,0,0,0,0,0,0,0,0,0,0,0,0,0,0,0,0,0,0,0,0,0,0,0,0,0,0,0,0,0,0,1.2036,1.2036,0,1.2055,1.2055,1.2056,1.2034,1.2033,1.2033,1.2032,1.2052,1.2053,1.2055,0,0,0,0,0,0,0,0,0,0,0,0,0,1.1979,1.198,1.2036,1.2036,1.2036,1.2055,1.2055,1.2056,1.2034,1.2033,1.2032,1.2031,1.2052,1.2053,1.2055,0,0,0,0,0,0,0,0,0,0,0,0,0,1.2001,1.198,1.2036,1.2028,1.2027,1.2055,1.2055,1.2056,1.2035,1.2033,1.2032,1.2031,1.2051,1.2053,1.2055,1.2092,0,0,1.2061,1.2062,0,0,0,0,0,0,0,0,1.2,1.2003,1.2029,1.2028,1.2028,1.2041,1.2043,1.2068,1.2035,1.2032,1.2032,1.203,1.2049,1.2052,1.2058,1.2093,1.2094,1.2061,1.2062,1.2063,1.2064,0,0,0,0,0,0,0,1.1998,1.2002,1.2043,1.2029,1.2029,1.2023,1.2025,1.2047,1.2047,1.2032,1.203,1.2033,1.2049,1.2056,1.2058,1.2094,1.2061,1.2063,1.2064,1.2065,1.2157,1.2158,0,0,0,0,0,0,1.1998,1.2001,1.2043,1.2044,1.2011,1.2025,1.2027,1.2038,1.2047,1.2047,1.2034,1.2032,1.2053,1.2056,1.2059,1.21,1.2063,1.2065,1.2066,1.2155,1.2157,1.2158,0,0,0,0,0,0,1.1997,1.2002,1.2042,1.2022,1.2027,1.2027,1.204,1.2039,1.2046,1.2049,1.2048,1.2041,1.2052,1.2056,1.2083,1.2101,1.2066,1.2068,1.2154,1.2156,1.2158,1.2185,0,0,0,0,0,0,1.1995,1.2002,1.2016,1.2023,1.2028,1.2067,1.2041,1.204,1.2049,1.2047,1.2055,1.2056,1.2052,1.208,1.2085,1.2103,1.2069,1.2152,1.2155,1.2157,1.2183,1.2188,1.2192,0,0,0,0,0,1.1993,1.2024,1.2017,1.2022,1.2046,1.2068,1.2071,1.2066,1.2051,1.2065,1.2066,1.2055,1.2098,1.2083,1.2088,1.2107,1.2151,1.2154,1.2157,1.2181,1.2187,1.2192,0,0,0,0,0,0,1.2021,1.2025,1.2017,1.2051,1.2059,1.2064,1.2082,1.2073,1.2085,1.2083,1.2076,1.2078,1.2106,1.2109,1.2092,1.2142,1.2122,1.2126,1.2138,1.2144,1.2149,1.2147,1.2071,0,0,0,0,0,1.203,1.2047,1.205,1.208,1.2084,1.2082,1.2091,1.2086,1.2095,1.2098,1.2101,1.211,1.2124,1.2135,1.2149,1.2183,1.2183,1.2198,1.2203,1.2207,1.221,1.2226,1.2232,1.2168,1.2168,1.2167,0,0,1.2051,1.2055,1.2067,1.2085,1.2091,1.2108,1.2085,1.2105,1.2118,1.2101,1.2126,1.2129,1.2137,1.2167,1.2181,1.2171,1.2228,1.221,1.2213,1.2215,1.2229,1.2235,1.2241,1.2169,1.2169,1.2169,0,0,1.2097,1.2103,1.2127,1.2133,1.2141,1.2139,1.2144,1.215,1.2151,1.2176,1.2163,1.2177,1.2204,1.221,1.2216,1.2261,1.2251,1.2266,1.2291,1.2306,1.2311,1.2316,1.233,1.2335,1.227,1.227,1.227,0,1.2122,1.2148,1.2141,1.216,1.2168,1.2153,1.2176,1.2182,1.2194,1.22,1.2188,1.2219,1.2225,1.2254,1.2265,1.2271,1.2276,1.2265,1.2311,1.2315,1.2319,1.2333,1.2339,1.2271,1.2271,1.2271,1.2271,0,1.2177,1.2195,1.2213,1.2224,1.2233,1.2255,1.225,1.2261,1.2254,1.2253,1.2277,1.2282,1.2295,1.2302,1.2297,1.2331,1.2324,1.2312,1.2292,1.2327,1.234,1.2345,1.2274,1.2273,1.2273,1.2272,0,0,1.2243,1.2247,1.2254,1.2258,1.2264,1.2278,1.2297,1.231,1.2318,1.2327,1.2342,1.2364,1.2352,1.2359,1.2354,1.2367,1.24,1.2353,1.2353,1.2361,1.2435,1.2443,1.2449,1.2393,1.2394,1.2395,1.2434,0,1.2288,1.2322,1.2315,1.2348,1.2363,1.2347,1.2364,1.2369,1.2368,1.238,1.2379,1.2393,1.2378,1.2381,1.2394,1.2393,1.2415,1.239,1.2406,1.2407,1.2404,1.2456,1.2466,1.2502,1.2439,1.244,1.244,0,1.2346,1.2354,1.2389,1.239,1.2396,1.2412,1.2421,1.2433,1.2438,1.2436,1.2442,1.2434,1.2452,1.2432,1.2456,1.2439,1.2445,1.2446,1.2447,1.2448,1.2425,1.2457,1.2514,1.2519,1.2448,1.2448,1.2447,0,1.2388,1.2409,1.2431,1.2435,1.2438,1.2448,1.245,1.2454,1.2461,1.2469,1.2473,1.2483,1.2489,1.2496,1.249,1.2476,1.2514,1.2494,1.2512,1.2512,1.2521,1.2521,1.2578,1.2526,1.2526,1.2526,1.2526,0,1.2439,1.246,1.245,1.2464,1.2486,1.2477,1.2499,1.2499,1.2502,1.2514,1.2502,1.2514,1.2505,1.2516,1.2511,1.2531,1.2534,1.2532,1.253,1.2532,1.2532,1.2536,1.2533,1.2528,1.2527,1.2527,1.2527,0,1.249,1.2484,1.2507,1.2507,1.2507,1.2524,1.2523,1.2535,1.2532,1.2548,1.2551,1.2547,1.2559,1.2553,1.2566,1.2562,1.2587,1.2582,1.2585,1.2584,1.2601,1.2599,1.2663,1.267,1.2614,1.2615,1.2615,0,1.2523,1.2538,1.2538,1.2545,1.2548,1.256,1.2566,1.2557,1.2564,1.2569,1.258,1.259,1.2598,1.2618,1.2616,1.2625,1.2619,1.2641,1.2621,1.2622,1.2618,1.2617,1.2617,1.2645,1.2646,1.2646,1.2647,0,1.258,1.2575,1.2585,1.2593,1.26,1.2606,1.2611,1.2618,1.2608,1.2617,1.2628,1.2634,1.2646,1.2656,1.2663,1.2664,1.2653,1.2653,1.2657,1.2659,1.266,1.2658,1.2595,1.2651,1.2651,1.2651,1.265,1.265,1.2622,1.2634,1.2635,1.2645,1.2647,1.2652,1.2662,1.2659,1.2669,1.2677,1.2671,1.2684,1.2686,1.2694,1.2696,1.2706,1.2697,1.2704,1.2705,1.2707,1.2708,1.2659,1.2707,1.2707,1.2707,1.2707,1.2707,0,1.2677,1.2676,1.2686,1.2692,1.2699,1.2688,1.2692,1.2699,1.271,1.2712,1.272,1.2732,1.2741,1.2738,1.2746,1.2753,1.2748,1.2756,1.2755,1.2755,1.2717,1.2711,1.2759,1.2759,1.2759,1.2759,1.2759,1.2759,1.2707,1.2725,1.2721,1.274,1.2739,1.2751,1.2754,1.2757,1.2758,1.2772,1.2779,1.2777,1.2777,1.2784,1.2791,1.279,1.2792,1.2801,1.2798,1.2763,1.2758,1.2753,1.2747,1.2802,1.2802,1.2835,1.2835,1.2836]}]]